| time (UTC) | temp F | wind direction | speed knots | gust knots | rain 1hr in | rain 24hr in | rain mn in | humidity % | barometer mb |
| 20260509234832 | 58 | 2.6 | 2.6 | 0.00 | 0.00 | 0.00 | 99 | ||
| 20260509230812 | 59 | 2.6 | 2.6 | 0.00 | 0.00 | 0.00 | 99 | ||
| 20260509225812 | 59 | 2.6 | 2.6 | 0.00 | 0.00 | 0.00 | 99 | ||
| 20260509224953 | 60 | 1.7 | 1.7 | 0.00 | 0.00 | 0.00 | 99 | ||
| 20260509223831 | 60 | 2.6 | 2.6 | 0.00 | 0.00 | 0.00 | 99 | ||
| 20260509222811 | 62 | 4.3 | 4.3 | 0.00 | 0.00 | 0.00 | 99 | ||
| 20260509221831 | 64 | 4.3 | 4.3 | 0.00 | 0.00 | 0.00 | 99 | ||
| 20260509220811 | 64 | 3.5 | 3.5 | 0.00 | 0.00 | 0.00 | 99 | ||
| 20260509212812 | 66 | 3.5 | 3.5 | 0.00 | 0.00 | 0.00 | 99 | ||
| 20260509211812 | 66 | 1.7 | 1.7 | 0.00 | 0.00 | 0.00 | 99 | ||
| 20260509210810 | 67 | 2.6 | 2.6 | 0.00 | 0.00 | 0.00 | 99 | ||
| 20260509205810 | 68 | 3.5 | 3.5 | 0.00 | 0.00 | 0.00 | 99 | ||
| 20260509200312 | 70 | 2.6 | 2.6 | 0.00 | 0.00 | 0.00 | 99 | ||
| 20260509194812 | 72 | 4.3 | 5.2 | 0.00 | 0.00 | 0.00 | 98 | ||
| 20260509182313 | 72 | 4.3 | 4.3 | 0.00 | 0.00 | 0.00 | 90 | ||
| 20260509181313 | 73 | 2.6 | 2.6 | 0.00 | 0.00 | 0.00 | 91 | ||
| 20260509180312 | 72 | 4.3 | 4.3 | 0.00 | 0.00 | 0.00 | 92 | ||
| 20260509175310 | 71 | 2.6 | 2.6 | 0.00 | 0.00 | 0.00 | 93 | ||
| 20260509174310 | 71 | 4.3 | 6.1 | 0.00 | 0.00 | 0.00 | 92 | ||
| 20260509165811 | 71 | 2.6 | 2.6 | 0.00 | 0.00 | 0.00 | 95 | ||
| 20260509164813 | 72 | 2.6 | 2.6 | 0.00 | 0.00 | 0.00 | 96 | ||
| 20260509163810 | 68 | 0.9 | 0.9 | 0.00 | 0.00 | 0.00 | 99 | ||
| 20260509151811 | 68 | 5.2 | 5.2 | 0.00 | 0.00 | 0.00 | 99 | ||
| 20260509144722 | 63 | 1.7 | 1.7 | 0.00 | 0.00 | 0.00 | 99 | ||
| 20260509135811 | 55 | 1.7 | 1.7 | 0.00 | 0.00 | 0.00 | 99 | ||
| 20260509133312 | 54 | 1.7 | 1.7 | 0.00 | 0.00 | 0.00 | 99 | ||
| 20260509132311 | 53 | 1.7 | 1.7 | 0.00 | 0.00 | 0.00 | 99 | ||
| 20260509131311 | 53 | 0.9 | 0.9 | 0.00 | 0.00 | 0.00 | 99 | ||
| 20260509125312 | 53 | 1.7 | 1.7 | 0.00 | 0.00 | 0.00 | 99 | ||
| 20260509124613 | 45 | 2.6 | 4.3 | 0.00 | 0.00 | 0.00 | 99 |